When you browse on this site, cookies collect data to enhance your experience and personalize the content and advertising you see.
Visit our Privacy Policy to learn more. By continuing to use the site, you agree to this use of cookies and data.
  • In Latvia
  • List of Countries
  • For 7 days
  • Water Temperature
  • Weather Map
  • Weather Widgets
  • user-avatar
    Login

    Hourly Weather Mohale's Hoek

    Today, 19 September, Thursday

    Time Temperature Precipitation Wind Pressure Humidity
    00:00 +14°C° 0 mm 1 mps 635 mmHg 30%
    01:00 +12°C° 0 mm 0 mps 634 mmHg 39%
    02:00 +13°C° 0 mm 1 mps 634 mmHg 37%
    03:00 +12°C° 0 mm 1 mps 634 mmHg 42%
    04:00 +12°C° 0 mm 1 mps 634 mmHg 46%
    05:00 +12°C° 0 mm 1 mps 634 mmHg 51%
    06:00 +15°C° 0 mm 1 mps 636 mmHg 38%
    07:00 +20°C° 0 mm 1 mps 637 mmHg 25%
    08:00 +24°C° 0 mm 1 mps 639 mmHg 12%
    09:00 +26°C° 0 mm 1 mps 639 mmHg 10%
    10:00 +28°C° 0 mm 2 mps 639 mmHg 9%
    11:00 +30°C° 0 mm 2 mps 639 mmHg 8%
    12:00 +31°C° 0 mm 3 mps 639 mmHg 8%
    13:00 +31°C° 0 mm 3 mps 638 mmHg 7%
    14:00 +33°C° 0 mm 4 mps 638 mmHg 7%
    15:00 +32°C° 0 mm 4 mps 638 mmHg 8%
    16:00 +31°C° 0 mm 3 mps 637 mmHg 9%
    17:00 +30°C° 0 mm 3 mps 637 mmHg 9%
    18:00 +27°C° 0 mm 3 mps 636 mmHg 14%
    19:00 +23°C° 0 mm 2 mps 635 mmHg 19%
    20:00 +19°C° 0 mm 1 mps 634 mmHg 23%
    21:00 +19°C° 0 mm 1 mps 634 mmHg 26%
    22:00 +18°C° 0 mm 1 mps 634 mmHg 28%
    23:00 +18°C° 0 mm 1 mps 634 mmHg 31%

    Tomorrow, 20 September, Friday

    Time Temperature Precipitation Wind Pressure Humidity
    00:00 +17°C° 0 mm 2 mps 634 mmHg 27%
    01:00 +18°C° 0 mm 2 mps 635 mmHg 24%
    02:00 +18°C° 0 mm 3 mps 635 mmHg 20%
    03:00 +18°C° 0 mm 3 mps 635 mmHg 25%
    04:00 +17°C° 0 mm 2 mps 635 mmHg 30%
    05:00 +16°C° 0 mm 2 mps 635 mmHg 35%
    06:00 +18°C° 0 mm 3 mps 636 mmHg 32%
    07:00 +20°C° 0 mm 4 mps 637 mmHg 29%
    08:00 +22°C° 0 mm 5 mps 638 mmHg 26%
    09:00 +25°C° 0 mm 5 mps 638 mmHg 23%
    10:00 +26°C° 0 mm 6 mps 638 mmHg 21%
    11:00 +28°C° 0 mm 6 mps 639 mmHg 18%
    12:00 +29°C° 0 mm 6 mps 638 mmHg 17%
    13:00 +30°C° 0 mm 7 mps 637 mmHg 16%
    14:00 +32°C° 0 mm 7 mps 637 mmHg 14%
    15:00 +32°C° 0 mm 6 mps 636 mmHg 15%
    16:00 +30°C° 0 mm 6 mps 636 mmHg 15%
    17:00 +30°C° 0 mm 6 mps 635 mmHg 15%
    18:00 +27°C° 0 mm 5 mps 635 mmHg 18%
    19:00 +25°C° 0 mm 4 mps 634 mmHg 21%
    20:00 +22°C° 0 mm 3 mps 634 mmHg 23%
    21:00 +21°C° 0 mm 3 mps 634 mmHg 25%
    22:00 +20°C° 0 mm 2 mps 634 mmHg 26%
    23:00 +20°C° 0 mm 2 mps 634 mmHg 27%

    Day after tomorrow, 21 September, Saturday

    Time Temperature Precipitation Wind Pressure Humidity
    00:00 +19°C° 0 mm 2 mps 633 mmHg 27%
    01:00 +18°C° 0 mm 3 mps 633 mmHg 28%
    02:00 +18°C° 0 mm 3 mps 633 mmHg 29%
    03:00 +17°C° 0 mm 3 mps 632 mmHg 30%
    04:00 +16°C° 0 mm 2 mps 632 mmHg 30%
    05:00 +15°C° 0 mm 2 mps 632 mmHg 31%
    06:00 +17°C° 0 mm 3 mps 633 mmHg 27%
    07:00 +20°C° 0 mm 3 mps 634 mmHg 23%
    08:00 +22°C° 0 mm 4 mps 634 mmHg 20%
    09:00 +24°C° 0 mm 6 mps 635 mmHg 18%
    10:00 +27°C° 0 mm 8 mps 635 mmHg 15%
    11:00 +29°C° 0 mm 10 mps 635 mmHg 13%
    12:00 +31°C° 0 mm 10 mps 634 mmHg 12%
    13:00 +31°C° 0 mm 10 mps 634 mmHg 11%
    14:00 +32°C° 0 mm 11 mps 633 mmHg 10%
    15:00 +31°C° 0 mm 10 mps 633 mmHg 10%
    16:00 +31°C° 0 mm 9 mps 632 mmHg 10%
    17:00 +29°C° 0 mm 9 mps 632 mmHg 11%
    18:00 +26°C° 0 mm 7 mps 631 mmHg 14%
    19:00 +23°C° 0 mm 5 mps 631 mmHg 16%
    20:00 +20°C° 0 mm 4 mps 630 mmHg 19%
    21:00 +20°C° 0 mm 4 mps 630 mmHg 19%
    22:00 +20°C° 0 mm 4 mps 631 mmHg 20%
    23:00 +20°C° 0 mm 4 mps 631 mmHg 20%

    22 September, Sunday

    Time Temperature Precipitation Wind Pressure Humidity
    00:00 +19°C° 0 mm 3 mps 631 mmHg 22%
    01:00 +18°C° 0 mm 3 mps 630 mmHg 24%
    02:00 +16°C° 0 mm 3 mps 630 mmHg 26%
    03:00 +15°C° 0 mm 2 mps 630 mmHg 28%
    04:00 +14°C° 0 mm 2 mps 630 mmHg 30%
    05:00 +13°C° 0 mm 1 mps 630 mmHg 32%
    06:00 +15°C° 0 mm 2 mps 631 mmHg 29%
    07:00 +17°C° 0 mm 2 mps 632 mmHg 26%
    08:00 +19°C° 0 mm 2 mps 633 mmHg 23%
    09:00 +21°C° 0 mm 3 mps 633 mmHg 22%
    10:00 +23°C° 0 mm 5 mps 634 mmHg 22%
    11:00 +26°C° 0 mm 6 mps 634 mmHg 21%
    12:00 +26°C° 0 mm 7 mps 634 mmHg 19%
    13:00 +27°C° 0 mm 7 mps 634 mmHg 17%
    14:00 +27°C° 0 mm 8 mps 634 mmHg 15%
    15:00 +26°C° 0 mm 7 mps 634 mmHg 16%
    16:00 +24°C° 0 mm 6 mps 634 mmHg 16%
    17:00 +23°C° 0 mm 6 mps 634 mmHg 17%
    18:00 +19°C° 0 mm 4 mps 634 mmHg 23%
    19:00 +14°C° 0 mm 3 mps 633 mmHg 29%
    20:00 +12°C° 0 mm 2 mps 633 mmHg 36%
    21:00 +10°C° 0 mm 2 mps 633 mmHg 46%
    22:00 +9°C° 0 mm 2 mps 633 mmHg 57%
    23:00 +8°C° 0 mm 2 mps 633 mmHg 68%

    23 September, Monday

    Time Temperature Precipitation Wind Pressure Humidity
    00:00 +7°C° 0 mm 2 mps 633 mmHg 72%
    01:00 +7°C° 0 mm 1 mps 633 mmHg 77%
    02:00 +7°C° 0 mm 1 mps 633 mmHg 81%
    03:00 +6°C° 0 mm 1 mps 632 mmHg 82%
    04:00 +5°C° 0 mm 1 mps 632 mmHg 83%
    05:00 +5°C° 0 mm 1 mps 632 mmHg 84%
    06:00 +8°C° 0 mm 1 mps 633 mmHg 73%
    07:00 +10°C° 0 mm 1 mps 635 mmHg 62%
    08:00 +13°C° 0 mm 1 mps 636 mmHg 50%
    09:00 +16°C° 0 mm 1 mps 636 mmHg 41%
    10:00 +19°C° 0 mm 2 mps 637 mmHg 31%
    11:00 +22°C° 0 mm 3 mps 637 mmHg 21%
    12:00 +24°C° 0 mm 3 mps 637 mmHg 18%
    13:00 +26°C° 0 mm 4 mps 636 mmHg 15%
    14:00 +27°C° 0 mm 4 mps 636 mmHg 12%
    15:00 +27°C° 0 mm 4 mps 636 mmHg 12%
    16:00 +26°C° 0 mm 4 mps 636 mmHg 12%
    17:00 +26°C° 0 mm 3 mps 635 mmHg 12%
    18:00 +21°C° 0 mm 2 mps 635 mmHg 17%
    19:00 +16°C° 0 mm 2 mps 634 mmHg 22%
    20:00 +12°C° 0 mm 1 mps 633 mmHg 27%
    21:00 +11°C° 0 mm 1 mps 633 mmHg 34%
    22:00 +10°C° 0 mm 1 mps 633 mmHg 41%
    23:00 +10°C° 0 mm 1 mps 632 mmHg 48%

    24 September, Tuesday

    Time Temperature Precipitation Wind Pressure Humidity
    00:00 +9°C° 0 mm 1 mps 632 mmHg 55%
    01:00 +8°C° 0 mm 1 mps 632 mmHg 61%
    02:00 +7°C° 0 mm 1 mps 632 mmHg 67%
    03:00 +7°C° 0 mm 1 mps 631 mmHg 68%
    04:00 +6°C° 0 mm 1 mps 631 mmHg 69%
    05:00 +4°C° 0 mm 0 mps 631 mmHg 70%
    06:00 +8°C° 0 mm 1 mps 632 mmHg 61%
    07:00 +11°C° 0 mm 1 mps 634 mmHg 51%
    08:00 +14°C° 0 mm 1 mps 635 mmHg 41%
    09:00 +16°C° 0 mm 1 mps 635 mmHg 36%
    10:00 +19°C° 0 mm 1 mps 636 mmHg 30%
    11:00 +21°C° 0 mm 2 mps 636 mmHg 25%
    12:00 +23°C° 0 mm 2 mps 636 mmHg 22%
    13:00 +24°C° 0 mm 3 mps 636 mmHg 19%
    14:00 +25°C° 0 mm 4 mps 636 mmHg 15%
    15:00 +23°C° 0 mm 5 mps 636 mmHg 19%
    16:00 +22°C° 0 mm 6 mps 636 mmHg 22%
    17:00 +21°C° 0 mm 7 mps 635 mmHg 25%
    18:00 +17°C° 0 mm 6 mps 635 mmHg 36%
    19:00 +13°C° 0 mm 6 mps 635 mmHg 47%
    20:00 +9°C° 0 mm 5 mps 635 mmHg 58%
    21:00 +8°C° 0 mm 5 mps 635 mmHg 63%
    22:00 +7°C° 0 mm 5 mps 635 mmHg 69%
    23:00 +6°C° 0 mm 4 mps 635 mmHg 74%
    Show more